Regional Weather Roundup
Issued by NWS

Home | Current Version | Previous Version | Text Only | Print | Product List | Glossary On
Versions: 1 2 3 4 5 6 7 8 9 10 11 12 13 14 15 16 17 18 19 20 21 22 23 24 25 26 27 28 29 30 31 32 33 34 35 36 37 38 39 40 41 42 43 44 45 46 47 48 49 50
000
ASUS43 KDTX 240010
RWRMI
MICHIGAN HOURLY REGIONAL WEATHER ROUNDUP
NATIONAL WEATHER SERVICE DETROIT/PONTIAC MI
800 PM EDT THU MAR 23 2017

NOTE: "FAIR" INDICATES FEW OR NO CLOUDS BELOW 12,000 FEET WITH NO
SIGNIFICANT WEATHER AND/OR OBSTRUCTION TO VISIBILITY.

MIZ047>049-052>055-059>063-066>070-074>076-081>083-240100-
SOUTHEAST LOWER MICHIGAN

CITY           SKY/WX    TMP DP  RH WIND       PRES   REMARKS
ADRIAN         CLOUDY    36  25  64 SE9       30.26F WCI  29
6HR MIN TEMP:  36; 6HR MAX TEMP:  45;

ALMA           CLOUDY    41  18  39 SE9       30.20F
6HR MIN TEMP:  40; 6HR MAX TEMP:  44;

ANN ARBOR      CLOUDY    37  19  48 E10       30.25F WCI  30
BAD AXE        CLOUDY    37  11  35 S8        30.27F WCI  30
6HR MIN TEMP:  37; 6HR MAX TEMP:  42;

CARO           CLOUDY    37  13  37 SE9G16    30.25F WCI  30
DETROIT CITY   CLOUDY    37  22  54 E12       30.29F WCI  29
6HR MIN TEMP:  37; 6HR MAX TEMP:  42;

DETROIT        CLOUDY    40  17  39 E8        30.29F WCI  34
6HR MIN TEMP:  40; 6HR MAX TEMP:  44;

FLINT          CLOUDY    40  10  29 SE10      30.23F WCI  33
6HR MIN TEMP:  40; 6HR MAX TEMP:  44;

GROSSE ILE     CLOUDY    36  24  60 E9        30.27F WCI  29
6HR MIN TEMP:  36; 6HR MAX TEMP:  42;

HILLSDALE      CLOUDY    43  18  36 S9        30.21S
HOWELL         CLOUDY    39  15  37 SE10      30.23F WCI  33
6HR MIN TEMP:  39; 6HR MAX TEMP:  45;


CITY           SKY/WX    TMP DP  RH WIND       PRES   REMARKS
JACKSON        CLOUDY    41  21  44 SE13      30.22F
6HR MIN TEMP:  41; 6HR MAX TEMP:  47;

LAMBERTVILLE   CLOUDY    37  28  71 E7        30.27F WCI  31
6HR MIN TEMP:  37; 6HR MAX TEMP:  42;

LANSING        PTCLDY    41  16  36 SE14      30.21F
6HR MIN TEMP:  41; 6HR MAX TEMP:  47;

LAPEER         FAIR      36  14  41 SE8       30.25F WCI  29
6HR MIN TEMP:  36; 6HR MAX TEMP:  42;

MASON          CLOUDY    40  24  52 SE10      30.22F WCI  33
MONROE         CLOUDY    35  29  79 E7        30.28F WCI  29
MT. CLEMENS    CLOUDY    37  20  51 SE12      30.28F WCI  29
6HR MIN TEMP:  37; 6HR MAX TEMP:  39;

PONTIAC        CLOUDY    40  14  34 SE10      30.24F WCI  33
6HR MIN TEMP:  38; 6HR MAX TEMP:  43;

PORT HOPE        N/A     36  19  50 SE10      30.27F WCI  28
6HR MIN TEMP:  33; 6HR MAX TEMP:  37;

PORT HURON     CLOUDY    37  16  41 SE7       30.30F WCI  32
TRI CITIES     CLOUDY    41  11  29 SE10      30.22F
6HR MIN TEMP:  41; 6HR MAX TEMP:  43;

MIDLAND        CLOUDY    42   9  25 SE9       30.21F
6HR MIN TEMP:  41; 6HR MAX TEMP:  43;

TROY           CLOUDY    40  16  37 E6        30.29F
SAGINAW HB     CLOUDY    41   9  26 SE9       30.22F
$$
MIZ043>046-050>051-056>058-064>065-071>073-077>080-240100-
SOUTHWEST LOWER MICHIGAN

CITY           SKY/WX    TMP DP  RH WIND       PRES   REMARKS
BATTLE CREEK   CLOUDY    45  19  35 S13       30.19F
6HR MIN TEMP:  42; 6HR MAX TEMP:  48;

BENTON HARBOR  CLOUDY    45  22  40 SE14G22   30.12F
6HR MIN TEMP:  41; 6HR MAX TEMP:  46;

BIG RAPIDS     CLOUDY    41  10  27 SE8G17    30.13F
6HR MIN TEMP:  37; 6HR MAX TEMP:  41;

COLDWATER      CLOUDY    44  18  34 S7        30.20F
6HR MIN TEMP:  43; 6HR MAX TEMP:  47;

FREMONT        CLOUDY    44   9  23 SE7       30.13F
HOLLAND        CLOUDY    45  19  35 SE14      30.14F
6HR MIN TEMP:  43; 6HR MAX TEMP:  49;

GRAND RAPIDS   CLOUDY    44  16  32 S10       30.16F
6HR MIN TEMP:  40; 6HR MAX TEMP:  48;

IONIA          CLOUDY    43  19  38 SE12      30.17F
6HR MIN TEMP:  40; 6HR MAX TEMP:  46;

KALAMAZOO      CLOUDY    46  18  32 S8        30.18F
6HR MIN TEMP:  42; 6HR MAX TEMP:  47;

LUDINGTON      CLOUDY    42  14  31 SE14      30.04F
6HR MIN TEMP:  37; 6HR MAX TEMP:  43;

MARSHALL       CLOUDY    45  16  31 S8        30.19F
6HR MIN TEMP:  42; 6HR MAX TEMP:  48;

MOUNT PLEASANT CLOUDY    41  16  36 SE8       30.18F
6HR MIN TEMP:  38; 6HR MAX TEMP:  42;

MUSKEGON       CLOUDY    46  12  25 SE10      30.11F
6HR MIN TEMP:  40; 6HR MAX TEMP:  48;

SOUTH HAVEN    CLOUDY    45  20  37 SE9       30.13F
$$
MIZ016>042-240100-
NORTHERN LOWER MICHIGAN

CITY           SKY/WX    TMP DP  RH WIND       PRES   REMARKS
ALPENA         CLOUDY    34  23  64 SE12      30.23F WCI  25
6HR MIN TEMP:  34; 6HR MAX TEMP:  41; 6HR PCP: TRACE;

BEAVER ISLAND  CLOUDY    37  16  42 SE6       30.12F WCI  32
6HR MIN TEMP:  35; 6HR MAX TEMP:  37;

BELLAIRE       CLOUDY    39  12  33 S7        30.14F WCI  34
6HR MIN TEMP:  39; 6HR MAX TEMP:  41;

CADILLAC       CLOUDY    37  14  38 SE10      30.10F WCI  30
CHARLEVOIX     CLOUDY    38  13  36 SE6       30.15F WCI  34
6HR MIN TEMP:  37; 6HR MAX TEMP:  40;

FRANKFORT      CLOUDY    40  11  30 SE9       30.08F WCI  34
GAYLORD        CLOUDY    38  11  32 S12       30.14F WCI  30
6HR MIN TEMP:  38; 6HR MAX TEMP:  39;

GRAYLING       CLOUDY    37  12  35 SE8       30.17F WCI  31
HARBOR SPRINGS CLOUDY    38  13  35 E5        30.15F WCI  34
HOUGHTON LAKE  CLOUDY    38  12  34 SE9       30.17F WCI  31
6HR MIN TEMP:  37; 6HR MAX TEMP:  41;

MANISTEE       CLOUDY    40  14  34 E9        30.06F WCI  34
OSCODA         CLOUDY    37  22  56 SE10G16   30.24F WCI  29
6HR MIN TEMP:  36; 6HR MAX TEMP:  41;

PELLSTON       CLOUDY    38  11  32 SE8       30.15F WCI  32
6HR MIN TEMP:  38; 6HR MAX TEMP:  40;

ROGERS CITY    CLOUDY    34  22  61 SE12      30.22F WCI  25
TRAVERSE CITY  CLOUDY    41  13  31 SE7       30.11F
6HR MIN TEMP:  41; 6HR MAX TEMP:  43;

$$
MIZ007>008-015-240100-
EASTERN UPPER MICHIGAN

CITY           SKY/WX    TMP DP  RH WIND       PRES   REMARKS
KINROSS        CLOUDY    34  23  64 SE15      30.15F WCI  24
6HR MIN TEMP:  34; 6HR MAX TEMP:  36;

MACKINAC ISLAN CLOUDY    37  13  38 SE7       30.15F WCI  31
6HR MIN TEMP:  35; 6HR MAX TEMP:  37;

NEWBERRY       FLURRIES  33  17  52 SE8       30.11F WCI  26
6HR MIN TEMP:  32; 6HR MAX TEMP:  34;

S. S. MARIE    CLOUDY    34  23  64 E10       30.15F WCI  26
6HR MIN TEMP:  34; 6HR MAX TEMP:  37;

MUNISING         N/A     33  26  75 S9        30.04F WCI  25
6HR MIN TEMP:  33; 6HR MAX TEMP:  36; 6HR PCP:  0.04;

$$
MIZ004>006-011>014-085-240100-
CENTRAL UPPER MICHIGAN

CITY           SKY/WX    TMP DP  RH WIND       PRES   REMARKS
MANISTIQUE     CLOUDY    32  28  86 SE9       30.07F WCI  24
ESCANABA       CLOUDY    34  27  75 SE6       30.06F WCI  29
6HR MIN TEMP:  34; 6HR MAX TEMP:  35; 6HR PCP: TRACE;

MENOMINEE        N/A    N/A N/A N/A MISG        N/A
SAWYER-GWINN   CLOUDY    30  27  86 S15       30.02F WCI  19
$$
MIZ001>003-009>011-084-240100-
WESTERN UPPER MICHIGAN

CITY           SKY/WX    TMP DP  RH WIND       PRES   REMARKS
IRON MOUNTAIN  LGT RAIN  33  25  72 SE10      29.97F WCI  25
6HR MIN TEMP:  32; 6HR MAX TEMP:  35; 6HR PCP:  0.01;

HOUGHTON       CLOUDY    32  27  81 SE9       29.93F WCI  24
6HR MIN TEMP:  32; 6HR MAX TEMP:  34; 6HR PCP:  0.04;

COPPER HARBOR    N/A     33  28  81 SW8G17    29.99R WCI  26
6HR MIN TEMP:  33; 6HR MAX TEMP:  35; 6HR PCP:  0.04;

IRONWOOD       CLOUDY    37  24  59 S5        29.91F WCI  33
6HR MIN TEMP:  35; 6HR MAX TEMP:  39; 6HR PCP: TRACE;

$$

ABBREVIATIONS USED IN REMARKS
   TC - TEMPERATURE IN CELSIUS
  WCI - WIND CHILL INDEX
   HX - HEAT INDEX
  VSB - VISIBILITY





USA.gov is the U.S. government's official web portal to all federal, state and local government web resources and services.